�v������,���r���O(���x),�����t���O,���r���O(���x),�����t���O,��1(���x),�����t���O,��2���x),�����t���O,�������x,�����t���O
7/1/2003 0:00,28.4,1,64.9,1,27.2,1,27.6,1,23.9,1
7/1/2003 0:15,28.4,1,65.1,1,27.2,1,27.7,1,23.9,1
7/1/2003 0:30,28.3,1,65.4,1,27.1,1,27.7,1,24,1
7/1/2003 0:45,28.2,1,65.7,1,27.1,1,27.6,1,24,1
7/1/2003 1:00,28.3,1,65.9,1,27.1,1,27.6,1,24,1
7/1/2003 1:15,28.3,1,65.7,1,27.1,1,27.6,1,24,1
7/1/2003 1:30,28.3,1,66,1,27.1,1,27.6,1,24,1
7/1/2003 1:45,28.3,1,66.1,1,27.1,1,27.6,1,24.1,1
7/1/2003 2:00,28.3,1,66.2,1,27.1,1,27.7,1,24.1,1
7/1/2003 2:15,28.3,1,66.3,1,27.1,1,27.6,1,24.1,1
7/1/2003 2:30,28.2,1,66.3,1,27,1,27.6,1,24.1,1
7/1/2003 2:45,28.1,1,66.4,1,27,1,27.6,1,24.1,1
7/1/2003 3:00,28.1,1,66.6,1,27,1,27.6,1,24.2,1
7/1/2003 3:15,28.1,1,66.6,1,27,1,27.6,1,24.2,1
7/1/2003 3:30,28.2,1,66.6,1,27,1,27.6,1,24.2,1
7/1/2003 3:45,28.2,1,66.5,1,27,1,27.6,1,24.2,1
7/1/2003 4:00,28.2,1,66.5,1,27,1,27.6,1,24.2,1
7/1/2003 4:15,28.2,1,66.5,1,27,1,27.6,1,24.2,1
7/1/2003 4:30,28.1,1,66.5,1,27,1,27.6,1,24.2,1
7/1/2003 4:45,28.1,1,66.5,1,27,1,27.6,1,24.3,1
7/1/2003 5:00,28.1,1,66.7,1,27,1,27.6,1,24.3,1
7/1/2003 5:15,28.1,1,66.7,1,27,1,27.6,1,24.3,1
7/1/2003 5:30,28.1,1,66.6,1,27,1,27.6,1,24.3,1
7/1/2003 5:45,28.1,1,66.4,1,27,1,27.6,1,24.4,1
7/1/2003 6:00,28.2,1,66.4,1,27,1,27.6,1,24.4,1
7/1/2003 6:15,28.2,1,66.4,1,27,1,27.6,1,24.4,1
7/1/2003 6:30,28.2,1,66.3,1,27,1,27.6,1,24.4,1
7/1/2003 6:45,28.2,1,65.9,1,27,1,27.6,1,24.1,1
7/1/2003 7:00,28.1,1,66.6,1,27,1,27.6,1,24,1
7/1/2003 7:15,28.1,1,66.7,1,27,1,27.6,1,24.1,1
7/1/2003 7:30,28.1,1,66.6,1,27,1,27.6,1,24.1,1
7/1/2003 7:45,28.2,1,66.4,1,27,1,27.6,1,24.1,1
7/1/2003 8:00,28.2,1,66.4,1,27.1,1,27.6,1,24.1,1
7/1/2003 8:15,28.2,1,66.3,1,27.1,1,27.6,1,24.1,1
7/1/2003 8:30,28.2,1,66.3,1,27.1,1,27.6,1,24.2,1
7/1/2003 8:45,28.2,1,66.3,1,27.1,1,27.6,1,24.2,1
7/1/2003 9:00,28.1,1,66.4,1,27.1,1,27.6,1,24.2,1
7/1/2003 9:15,28.1,1,66.4,1,27.1,1,27.6,1,24.2,1
7/1/2003 9:30,28.1,1,66.3,1,27.1,1,27.6,1,24.2,1
7/1/2003 9:45,28.1,1,66.2,1,27.1,1,27.6,1,24.3,1
7/1/2003 10:00,28.2,1,66,1,27.1,1,27.6,1,24.3,1
7/1/2003 10:15,28.2,1,65.9,1,27.1,1,27.6,1,24.3,1
7/1/2003 10:30,28.2,1,65.7,1,27.1,1,27.6,1,24.3,1
7/1/2003 10:45,28.1,1,65.7,1,27.1,1,27.6,1,24.4,1
7/1/2003 11:00,28.1,1,65.8,1,27.1,1,27.6,1,24.4,1
7/1/2003 11:15,28.1,1,65.7,1,27.1,1,27.6,1,24.4,1
7/1/2003 11:30,28.1,1,65.7,1,27.1,1,27.6,1,24.4,1
7/1/2003 11:45,28.1,1,65.5,1,27,1,27.6,1,24.4,1
7/1/2003 12:00,28.1,1,65.5,1,27,1,27.6,1,24.4,1
7/1/2003 12:15,28.2,1,65.4,1,27,1,27.5,1,24.5,1
7/1/2003 12:30,28.2,1,65.3,1,27,1,27.5,1,24.5,1
7/1/2003 12:45,28.2,1,65.3,1,27,1,27.5,1,24.5,1
7/1/2003 13:00,28.2,1,65.3,1,27,1,27.5,1,24.5,1
7/1/2003 13:15,28.2,1,65.3,1,27,1,27.5,1,24.5,1
7/1/2003 13:30,28.1,1,65.3,1,26.9,1,27.5,1,24.6,1
7/1/2003 13:45,28.2,1,65.3,1,26.9,1,27.5,1,24.6,1
7/1/2003 14:00,28.2,1,65.2,1,26.9,1,27.5,1,24.6,1
7/1/2003 14:15,28.1,1,65.3,1,26.9,1,27.5,1,24.6,1
7/1/2003 14:30,28.1,1,65.6,1,26.9,1,27.5,1,24.6,1
7/1/2003 14:45,28.1,1,65.6,1,26.9,1,27.5,1,24.6,1
7/1/2003 15:00,28.1,1,65.6,1,26.9,1,27.5,1,24.6,1
7/1/2003 15:15,28.1,1,65.5,1,26.9,1,27.5,1,24.7,1
7/1/2003 15:30,28.1,1,65.5,1,26.9,1,27.5,1,24.7,1
7/1/2003 15:45,28,1,65.7,1,26.9,1,27.5,1,24.7,1
7/1/2003 16:00,28,1,65.8,1,26.8,1,27.4,1,24.7,1
7/1/2003 16:15,28.1,1,65.7,1,26.8,1,27.4,1,24.7,1
7/1/2003 16:30,28.1,1,65.6,1,26.8,1,27.4,1,24.7,1
7/1/2003 16:45,28,1,65.6,1,26.8,1,27.4,1,24.7,1
7/1/2003 17:00,28,1,65.7,1,26.8,1,27.4,1,24.8,1
7/1/2003 17:15,28,1,65.7,1,26.8,1,27.4,1,24.8,1
7/1/2003 17:30,28,1,65.6,1,26.8,1,27.4,1,24.8,1
7/1/2003 17:45,28,1,65.5,1,26.8,1,27.4,1,24.8,1
7/1/2003 18:00,28,1,65.6,1,26.7,1,27.4,1,24.8,1
7/1/2003 18:15,28,1,65.6,1,26.7,1,27.3,1,24.8,1
7/1/2003 18:30,28,1,65.6,1,26.7,1,27.3,1,24.8,1
7/1/2003 18:45,28,1,65.5,1,26.7,1,27.3,1,24.8,1
7/1/2003 19:00,28,1,65.4,1,26.7,1,27.3,1,24.9,1
7/1/2003 19:15,28,1,65.5,1,26.7,1,27.3,1,24.9,1
7/1/2003 19:30,27.9,1,65.6,1,26.6,1,27.3,1,24.9,1
7/1/2003 19:45,28,1,65.5,1,26.6,1,27.3,1,24.9,1
7/1/2003 20:00,28,1,65.4,1,26.6,1,27.3,1,24.9,1
7/1/2003 20:15,28,1,65.3,1,26.6,1,27.3,1,24.9,1
7/1/2003 20:30,27.9,1,65.5,1,26.6,1,27.3,1,24.9,1
7/1/2003 20:45,27.9,1,65.5,1,26.6,1,27.3,1,24.9,1
7/1/2003 21:00,27.9,1,65.4,1,26.6,1,27.3,1,24.9,1
7/1/2003 21:15,27.9,1,65.3,1,26.6,1,27.3,1,24.9,1
7/1/2003 21:30,27.9,1,65.3,1,26.6,1,27.3,1,24.9,1
7/1/2003 21:45,27.9,1,65.5,1,26.6,1,27.2,1,24.9,1
7/1/2003 22:00,27.9,1,65.5,1,26.6,1,27.2,1,25,1
7/1/2003 22:15,27.9,1,66.7,1,26.7,1,27.2,1,24.9,1
7/1/2003 22:30,28.1,1,67.5,1,26.7,1,27.2,1,25,1
7/1/2003 22:45,28,1,65.4,1,26.8,1,27.1,1,25,1
7/1/2003 23:00,27.9,1,64.3,1,26.9,1,27.1,1,24.9,1
7/1/2003 23:15,27.9,1,64,1,26.9,1,27.1,1,24.9,1
7/1/2003 23:30,27.9,1,63.5,1,26.9,1,27.1,1,24.9,1
7/1/2003 23:45,28,1,63,1,26.9,1,27.1,1,24.9,1
7/2/2003 0:00,28,1,62.3,1,27,1,27.1,1,24.9,1
7/2/2003 0:15,28,1,62,1,27,1,27.1,1,24.9,1
7/2/2003 0:30,28,1,61.9,1,26.9,1,27.1,1,24.9,1
7/2/2003 0:45,28,1,62.5,1,26.8,1,27,1,24.9,1
7/2/2003 1:00,27.9,1,62.9,1,26.8,1,27,1,24.9,1
7/2/2003 1:15,28,1,63.1,1,26.8,1,27,1,24.9,1
7/2/2003 1:30,28,1,63.2,1,26.8,1,27,1,24.9,1
7/2/2003 1:45,28,1,63,1,26.8,1,27,1,24.9,1
7/2/2003 2:00,28,1,63.2,1,26.8,1,27.1,1,24.9,1
7/2/2003 2:15,28,1,63.4,1,26.7,1,27.1,1,24.9,1
7/2/2003 2:30,28,1,63.4,1,26.7,1,27.1,1,24.9,1
7/2/2003 2:45,28,1,63.5,1,26.7,1,27.1,1,24.9,1
7/2/2003 3:00,28,1,63.7,1,26.7,1,27.1,1,24.8,1
7/2/2003 3:15,27.9,1,63.9,1,26.6,1,27.1,1,24.8,1
7/2/2003 3:30,27.9,1,63.8,1,26.6,1,27.2,1,24.8,1
7/2/2003 3:45,27.9,1,63.1,1,26.6,1,27.2,1,24.7,1
7/2/2003 4:00,28,1,63.1,1,26.6,1,27.2,1,24.7,1
7/2/2003 4:15,27.9,1,63.8,1,26.6,1,27.2,1,24.6,1
7/2/2003 4:30,27.9,1,64,1,26.6,1,27.2,1,24.6,1
7/2/2003 4:45,27.9,1,64.2,1,26.6,1,27.2,1,24.6,1
7/2/2003 5:00,27.9,1,64.2,1,26.6,1,27.2,1,24.5,1
7/2/2003 5:15,27.9,1,64.2,1,26.6,1,27.2,1,24.5,1
7/2/2003 5:30,28,1,64.2,1,26.6,1,27.2,1,24.5,1
7/2/2003 5:45,28,1,64.1,1,26.6,1,27.1,1,24.5,1
7/2/2003 6:00,28,1,64.1,1,26.6,1,27.1,1,24.4,1
7/2/2003 6:15,28,1,64.1,1,26.6,1,27.1,1,24.4,1
7/2/2003 6:30,27.9,1,64.9,1,26.6,1,27.2,1,24.3,1
7/2/2003 6:45,27.9,1,65,1,26.7,1,27.2,1,22.9,1
7/2/2003 7:00,27.9,1,64.8,1,26.7,1,27.2,1,22.7,1
7/2/2003 7:15,28,1,65,1,26.7,1,27.2,1,22.7,1
7/2/2003 7:30,28,1,64.6,1,26.7,1,27.2,1,22.5,1
7/2/2003 7:45,28,1,64.9,1,26.7,1,27.2,1,22.6,1
7/2/2003 8:00,28,1,64.4,1,26.7,1,27.2,1,22.2,1
7/2/2003 8:15,27.9,1,64.8,1,26.7,1,27.2,1,20.1,1
7/2/2003 8:30,27.9,1,65,1,26.7,1,27.2,1,-42.6,1
7/2/2003 8:45,27.9,1,65,1,26.7,1,27.2,1,-45.4,1
7/2/2003 9:00,27.9,1,65.2,1,26.8,1,27.2,1,-45.5,1
7/2/2003 9:15,27.9,1,65.1,1,26.8,1,27.2,1,-45.8,1
7/2/2003 9:30,27.9,1,65.2,1,26.8,1,27.2,1,-45.7,1
7/2/2003 9:45,27.8,1,65.2,1,26.8,1,27.3,1,-44.9,1
7/2/2003 10:00,27.9,1,65,1,26.8,1,27.3,1,-42.8,1
7/2/2003 10:15,27.9,1,64.6,1,26.8,1,27.3,1,-48.7,1
7/2/2003 10:30,27.9,1,64.6,1,26.8,1,27.3,1,-49,1
7/2/2003 10:45,27.8,1,64.8,1,26.8,1,27.3,1,-47.9,1
7/2/2003 11:00,27.9,1,65.1,1,26.9,1,27.3,1,-47.5,1
7/2/2003 11:15,27.9,1,65,1,26.9,1,27.3,1,-47.7,1
7/2/2003 11:30,27.9,1,64.9,1,26.9,1,27.3,1,-47.7,1
7/2/2003 11:45,27.9,1,64.9,1,26.9,1,27.3,1,-47.5,1
7/2/2003 12:00,27.8,1,64.9,1,26.9,1,27.3,1,-48.3,1
7/2/2003 12:15,27.9,1,65,1,26.9,1,27.3,1,-48.4,1
7/2/2003 12:30,27.9,1,64.9,1,26.9,1,27.3,1,-48.1,1
7/2/2003 12:45,27.9,1,64.8,1,26.9,1,27.3,1,-49.5,1
7/2/2003 13:00,27.9,1,64.8,1,26.9,1,27.3,1,-49,1
7/2/2003 13:15,27.8,1,64.9,1,26.9,1,27.3,1,-50,1
7/2/2003 13:30,27.9,1,64.8,1,26.9,1,27.3,1,-48.9,1
7/2/2003 13:45,27.9,1,64.7,1,26.9,1,27.3,1,-47.1,1
7/2/2003 14:00,27.9,1,64.6,1,26.9,1,27.3,1,-47.7,1
7/2/2003 14:15,27.9,1,64.6,1,26.9,1,27.3,1,-48.9,1
7/2/2003 14:30,27.9,1,64.7,1,26.9,1,27.3,1,-46.2,1
7/2/2003 14:45,27.9,1,64.7,1,26.9,1,27.3,1,-46.7,1
7/2/2003 15:00,27.9,1,64.6,1,26.9,1,27.3,1,-46.7,1
7/2/2003 15:15,27.9,1,64.6,1,26.9,1,27.3,1,-46,1
7/2/2003 15:30,27.9,1,64.6,1,26.9,1,27.3,1,-47,1
7/2/2003 15:45,27.8,1,64.6,1,26.9,1,27.3,1,-46.3,1
7/2/2003 16:00,27.9,1,64.7,1,26.9,1,27.3,1,-46.2,1
7/2/2003 16:15,27.9,1,64.6,1,26.9,1,27.3,1,-27.8,1
7/2/2003 16:30,27.9,1,64.5,1,26.9,1,27.3,1,-21.8,1
7/2/2003 16:45,27.9,1,64.6,1,26.9,1,27.3,1,8.4,1
7/2/2003 17:00,27.8,1,64.6,1,26.8,1,27.2,1,1.8,1
7/2/2003 17:15,27.9,1,64.6,1,26.8,1,27.2,1,-2.2,1
7/2/2003 17:30,27.9,1,64.5,1,26.8,1,27.2,1,-41,1
7/2/2003 17:45,27.9,1,64.5,1,26.8,1,27.2,1,15.1,1
7/2/2003 18:00,27.8,1,64.6,1,26.8,1,27.2,1,8.3,1
7/2/2003 18:15,27.8,1,64.7,1,26.8,1,27.2,1,-43,1
7/2/2003 18:30,27.9,1,64.7,1,26.8,1,27.2,1,-46.4,1
7/2/2003 18:45,27.9,1,64.5,1,26.7,1,27.2,1,-45.5,1
7/2/2003 19:00,27.9,1,64.5,1,26.7,1,27.2,1,-43.4,1
7/2/2003 19:15,27.8,1,64.6,1,26.7,1,27.1,1,-47,1
7/2/2003 19:30,27.8,1,64.6,1,26.7,1,27.1,1,-46.2,1
7/2/2003 19:45,27.8,1,64.5,1,26.6,1,27.1,1,-47.4,1
7/2/2003 20:00,27.8,1,64.4,1,26.6,1,27.1,1,-47.7,1
7/2/2003 20:15,27.8,1,64.4,1,26.6,1,27.1,1,-48.6,1
7/2/2003 20:30,27.8,1,64.5,1,26.6,1,27.1,1,-46.7,1
7/2/2003 20:45,27.8,1,64.4,1,26.6,1,27.1,1,-46.8,1
7/2/2003 21:00,27.8,1,64.3,1,26.6,1,27.1,1,-46.2,1
7/2/2003 21:15,27.8,1,64.2,1,26.5,1,27.1,1,-47.8,1
7/2/2003 21:30,27.8,1,64.3,1,26.5,1,27.1,1,-46.5,1
7/2/2003 21:45,27.7,1,64.4,1,26.5,1,27.1,1,-43.5,1
7/2/2003 22:00,27.8,1,64.4,1,26.5,1,27,1,-45.7,1
7/2/2003 22:15,27.8,1,64.2,1,26.5,1,27,1,-45.3,1
7/2/2003 22:30,27.8,1,64.2,1,26.5,1,27,1,-41.2,1
7/2/2003 22:45,27.8,1,64.2,1,26.5,1,27,1,-41.6,1
7/2/2003 23:00,28,1,67,1,26.7,1,27,1,-42.5,1
7/2/2003 23:15,27.9,1,64.4,1,26.8,1,27,1,-40.4,1
7/2/2003 23:30,27.8,1,63.4,1,26.8,1,27,1,-39.9,1
7/2/2003 23:45,27.8,1,63,1,26.9,1,27,1,-39.9,1
7/3/2003 0:00,27.9,1,62.5,1,26.9,1,27,1,-42.1,1
7/3/2003 0:15,27.9,1,61.8,1,26.9,1,27,1,-37.1,1
7/3/2003 0:30,28,1,61.5,1,27,1,27,1,-36,1
7/3/2003 0:45,28,1,61.2,1,27,1,27,1,-43.2,1
7/3/2003 1:00,27.9,1,61.1,1,27,1,27,1,-43.4,1
7/3/2003 1:15,27.9,1,61,1,27,1,26.9,1,-42.7,1
7/3/2003 1:30,27.9,1,60.9,1,26.9,1,27,1,-41.8,1
7/3/2003 1:45,27.9,1,61.4,1,26.9,1,27,1,-43.6,1
7/3/2003 2:00,27.9,1,61.7,1,26.8,1,27.1,1,-45.6,1
7/3/2003 2:15,27.9,1,62,1,26.8,1,27.1,1,-46.3,1
7/3/2003 2:30,27.9,1,62.5,1,26.7,1,27.1,1,-47.6,1
7/3/2003 2:45,27.9,1,62.7,1,26.7,1,27.1,1,-46.8,1
7/3/2003 3:00,27.8,1,62.9,1,26.6,1,27.1,1,-46.7,1
7/3/2003 3:15,27.8,1,63.2,1,26.6,1,27.1,1,-46.5,1
7/3/2003 3:30,27.8,1,63.4,1,26.6,1,27.1,1,-47.4,1
7/3/2003 3:45,27.8,1,63.5,1,26.6,1,27.1,1,-46.5,1
7/3/2003 4:00,27.8,1,63.6,1,26.5,1,27.1,1,-44.1,1
7/3/2003 4:15,27.8,1,63.7,1,26.5,1,27.1,1,-45.7,1
7/3/2003 4:30,27.8,1,63.8,1,26.5,1,27.1,1,-40.3,1
7/3/2003 4:45,27.8,1,63.9,1,26.5,1,27.1,1,-42.9,1
7/3/2003 5:00,27.8,1,63.9,1,26.5,1,27.1,1,-34.2,1
7/3/2003 5:15,27.8,1,63.9,1,26.5,1,27.1,1,-37.3,1
7/3/2003 5:30,27.8,1,64,1,26.4,1,27.1,1,-36.8,1
7/3/2003 5:45,27.7,1,64,1,26.4,1,27.1,1,-43.2,1
7/3/2003 6:00,27.7,1,64.1,1,26.4,1,27.1,1,-43.7,1
7/3/2003 6:15,27.8,1,64.1,1,26.4,1,27.1,1,-40,1
7/3/2003 6:30,27.8,1,64,1,26.4,1,27.1,1,-37.1,1
7/3/2003 6:45,27.8,1,64.3,1,26.4,1,27.1,1,-41.2,1
7/3/2003 7:00,27.8,1,64.5,1,26.4,1,27.1,1,-42.8,1
7/3/2003 7:15,27.8,1,64.6,1,26.4,1,27,1,-41,1
7/3/2003 7:30,27.8,1,64.5,1,26.4,1,27,1,-39.3,1
7/3/2003 7:45,27.8,1,64.4,1,26.4,1,27,1,-43.9,1
7/3/2003 8:00,27.7,1,64.5,1,26.4,1,27,1,-43.6,1
7/3/2003 8:15,27.7,1,64.6,1,26.4,1,27,1,-41.1,1
7/3/2003 8:30,27.7,1,64.5,1,26.4,1,27,1,-42.5,1
7/3/2003 8:45,27.7,1,64.4,1,26.3,1,27,1,-44.6,1
7/3/2003 9:00,27.8,1,64.4,1,26.3,1,26.9,1,-42.5,1
7/3/2003 9:15,27.7,1,64.5,1,26.3,1,26.9,1,-39,1
7/3/2003 9:30,27.7,1,64.5,1,26.3,1,26.9,1,-37.4,1
7/3/2003 9:45,27.7,1,64.5,1,26.3,1,26.9,1,-34.7,1
7/3/2003 10:00,27.7,1,64.4,1,26.3,1,26.9,1,-43.8,1
7/3/2003 10:15,27.7,1,64.3,1,26.4,1,27,1,-41.1,1
7/3/2003 10:30,27.7,1,64.4,1,26.5,1,27,1,-40.4,1
7/3/2003 10:45,27.7,1,64.5,1,26.5,1,27,1,-39.4,1
7/3/2003 11:00,27.7,1,64.4,1,26.5,1,27,1,-38.6,1
7/3/2003 11:15,27.7,1,64.3,1,26.5,1,27,1,-35.8,1
7/3/2003 11:30,27.7,1,64.3,1,26.5,1,27,1,-36.1,1
7/3/2003 11:45,27.6,1,64.3,1,26.5,1,27,1,-40.7,1
7/3/2003 12:00,27.7,1,64.2,1,26.6,1,27.1,1,-12.3,1
7/3/2003 12:15,27.7,1,64.3,1,26.6,1,27.1,1,-37.7,1
7/3/2003 12:30,27.8,1,64.1,1,26.6,1,27.1,1,-43.6,1
7/3/2003 12:45,27.7,1,64.4,1,26.7,1,27.1,1,-42.5,1
7/3/2003 13:00,27.7,1,64.2,1,26.7,1,27.1,1,-44.2,1
7/3/2003 13:15,27.7,1,64.2,1,26.7,1,27.1,1,-43.7,1
7/3/2003 13:30,27.8,1,64.2,1,26.7,1,27.1,1,-44.7,1
7/3/2003 13:45,27.8,1,64,1,26.7,1,27.1,1,-45.1,1
7/3/2003 14:00,27.8,1,64.3,1,26.7,1,27.1,1,-41,1
7/3/2003 14:15,27.7,1,64.4,1,26.7,1,27.1,1,-42.5,1
7/3/2003 14:30,27.7,1,64.5,1,26.7,1,27.1,1,-43.8,1
7/3/2003 14:45,27.8,1,64.5,1,26.7,1,27.1,1,-42.3,1
7/3/2003 15:00,27.8,1,64.4,1,26.7,1,27.1,1,-44.5,1
7/3/2003 15:15,27.8,1,64.3,1,26.7,1,27.1,1,-44.5,1
7/3/2003 15:30,27.8,1,64.3,1,26.7,1,27.1,1,-45.2,1
7/3/2003 15:45,27.8,1,64.2,1,26.7,1,27.1,1,-46.8,1
7/3/2003 16:00,27.8,1,64.2,1,26.7,1,27.1,1,-45.9,1
7/3/2003 16:15,27.8,1,64.1,1,26.7,1,27.1,1,-47.6,1
7/3/2003 16:30,27.8,1,64.1,1,26.6,1,27.1,1,-35.2,1
7/3/2003 16:45,27.9,1,64,1,26.6,1,27.1,1,-36.2,1
7/3/2003 17:00,27.9,1,64,1,26.6,1,27.1,1,-37.4,1
7/3/2003 17:15,27.8,1,64,1,26.6,1,27.1,1,-48.5,1
7/3/2003 17:30,27.8,1,64.1,1,26.6,1,27.1,1,-47.2,1
7/3/2003 17:45,27.7,1,64.1,1,26.6,1,27,1,-47.4,1
7/3/2003 18:00,27.8,1,64.1,1,26.6,1,27,1,-48.1,1
7/3/2003 18:15,27.8,1,64,1,26.6,1,27,1,-49.6,1
7/3/2003 18:30,27.8,1,64,1,26.5,1,27,1,-48.9,1
7/3/2003 18:45,27.7,1,64.1,1,26.5,1,27,1,-46.6,1
7/3/2003 19:00,27.7,1,64.3,1,26.5,1,27,1,-43.7,1
7/3/2003 19:15,27.7,1,64.8,1,26.6,1,27,1,-45.5,1
7/3/2003 19:30,27.8,1,64.2,1,27,1,27,1,-46.3,1
7/3/2003 19:45,27.8,1,63.9,1,27,1,27,1,0,1
7/3/2003 20:00,27.8,1,64.4,1,27.2,1,27,1,0,1
7/3/2003 20:15,28.1,1,67.7,1,27.2,1,27.1,1,0,1
7/3/2003 20:30,28,1,65.5,1,27.2,1,27.1,1,0,1
7/3/2003 20:45,28,1,65.1,1,27.2,1,27.1,1,0,1
7/3/2003 21:00,28,1,65,1,27.2,1,27.1,1,0,1
7/3/2003 21:15,28.1,1,64.8,1,27.1,1,27.1,1,0,1
7/3/2003 21:30,28,1,64.6,1,27.3,1,27.1,1,0,1
7/3/2003 21:45,28,1,64.5,1,27.1,1,27.1,1,0,1
7/3/2003 22:00,28,1,64.4,1,27,1,27.1,1,0,1
7/3/2003 22:15,28,1,64.2,1,26.8,1,27,1,0,1
7/3/2003 22:30,28,1,64.6,1,26.7,1,27,1,0,1
7/3/2003 22:45,28,1,64.6,1,26.6,1,27,1,0,1
7/3/2003 23:00,27.9,1,64.8,1,26.6,1,27,1,0,1
7/3/2003 23:15,27.9,1,65.1,1,26.5,1,26.9,1,0,1
7/3/2003 23:30,27.9,1,65.5,1,26.5,1,26.9,1,0,1
7/3/2003 23:45,28,1,65.7,1,26.5,1,27,1,0,1
7/4/2003 0:00,28,1,65.7,1,26.4,1,27,1,0,1
7/4/2003 0:15,28,1,66.3,1,26.4,1,26.9,1,0,1
7/4/2003 0:30,27.9,1,66.6,1,26.4,1,26.9,1,0,1
7/4/2003 0:45,28,1,67.2,1,26.4,1,27,1,0,1
7/4/2003 1:00,28,1,67.5,1,26.5,1,27,1,0,1
7/4/2003 1:15,28,1,67.8,1,26.5,1,27.1,1,0,1
7/4/2003 1:30,27.9,1,68.1,1,26.5,1,27.1,1,0,1
7/4/2003 1:45,27.9,1,68.7,1,26.4,1,27.1,1,0,1
7/4/2003 2:00,27.9,1,68.9,1,26.4,1,27.1,1,0,1
7/4/2003 2:15,27.9,1,68.9,1,26.4,1,27.1,1,0,1
7/4/2003 2:30,27.9,1,68.9,1,26.4,1,27.1,1,0,1
7/4/2003 2:45,27.8,1,69,1,26.4,1,27.1,1,0,1
7/4/2003 3:00,27.8,1,69.3,1,26.4,1,27.1,1,0,1
7/4/2003 3:15,27.8,1,69.3,1,26.4,1,27.1,1,0,1
7/4/2003 3:30,27.8,1,69.3,1,26.4,1,27.1,1,0,1
7/4/2003 3:45,27.8,1,69.3,1,26.4,1,27.1,1,0,1
7/4/2003 4:00,27.8,1,69.4,1,26.4,1,27.1,1,0,1
7/4/2003 4:15,27.7,1,69.5,1,26.4,1,27.1,1,0,1
7/4/2003 4:30,27.8,1,69.4,1,26.4,1,27.1,1,0,1
7/4/2003 4:45,27.8,1,69.3,1,26.4,1,27.1,1,0,1
7/4/2003 5:00,27.8,1,69.3,1,26.4,1,27.1,1,0,1
7/4/2003 5:15,27.7,1,69.2,1,26.4,1,27.1,1,0,1
7/4/2003 5:30,27.7,1,69.1,1,26.4,1,27.1,1,0,1
7/4/2003 5:45,27.8,1,69,1,26.4,1,27.1,1,0,1
7/4/2003 6:00,27.8,1,68.9,1,26.4,1,27.1,1,0,1
7/4/2003 6:15,27.8,1,68.9,1,26.4,1,27.1,1,0,1
7/4/2003 6:30,27.7,1,69,1,26.4,1,27.1,1,0,1
7/4/2003 6:45,27.8,1,68.5,1,26.4,1,27.1,1,0,1
7/4/2003 7:00,27.8,1,68.4,1,26.5,1,27.1,1,0,1
7/4/2003 7:15,27.8,1,68.3,1,26.4,1,27.1,1,0,1
7/4/2003 7:30,27.8,1,68.4,1,26.4,1,27.1,1,0,1
7/4/2003 7:45,27.7,1,68.4,1,26.4,1,27.1,1,0,1
7/4/2003 8:00,27.7,1,68.3,1,26.4,1,27,1,0,1
7/4/2003 8:15,27.8,1,68.1,1,26.4,1,27,1,0,1
7/4/2003 8:30,27.8,1,67.9,1,26.4,1,27,1,0,1
7/4/2003 8:45,27.7,1,68,1,26.4,1,27,1,0,1
7/4/2003 9:00,27.7,1,68,1,26.4,1,27,1,0,1
7/4/2003 9:15,27.7,1,67.9,1,26.5,1,27,1,0,1
7/4/2003 9:30,27.8,1,67.7,1,26.5,1,27,1,0,1
7/4/2003 9:45,27.7,1,67.6,1,26.5,1,27.1,1,0,1
7/4/2003 10:00,27.8,1,67.4,1,26.5,1,27.1,1,0,1
7/4/2003 10:15,27.8,1,67.4,1,26.6,1,27.1,1,0,1
7/4/2003 10:30,27.8,1,67.3,1,26.6,1,27.1,1,0,1
7/4/2003 10:45,27.8,1,67.2,1,26.6,1,27.1,1,0,1
7/4/2003 11:00,27.9,1,67.1,1,26.7,1,27.2,1,0,1
7/4/2003 11:15,27.9,1,67.1,1,26.7,1,27.2,1,0,1
7/4/2003 11:30,27.9,1,67,1,26.8,1,27.2,1,0,1
7/4/2003 11:45,27.9,1,67,1,26.8,1,27.3,1,0,1
7/4/2003 12:00,27.8,1,67.2,1,26.8,1,27.3,1,0,1
7/4/2003 12:15,27.8,1,67.3,1,26.8,1,27.3,1,21.4,1
7/4/2003 12:30,27.9,1,67.2,1,26.8,1,27.3,1,23.7,1
7/4/2003 12:45,27.9,1,67.1,1,26.8,1,27.3,1,23.7,1
7/4/2003 13:00,27.9,1,67,1,26.8,1,27.3,1,23.8,1
7/4/2003 13:15,27.9,1,67.1,1,26.9,1,27.3,1,23.8,1
7/4/2003 13:30,27.8,1,67.2,1,26.8,1,27.3,1,24,1
7/4/2003 13:45,27.9,1,67.2,1,26.9,1,27.3,1,24.1,1
7/4/2003 14:00,27.9,1,67.1,1,26.9,1,27.3,1,24.1,1
7/4/2003 14:15,27.9,1,67.1,1,26.9,1,27.3,1,24.1,1
7/4/2003 14:30,27.8,1,67.1,1,26.9,1,27.3,1,24.1,1
7/4/2003 14:45,27.9,1,67.2,1,26.9,1,27.3,1,24.2,1
7/4/2003 15:00,27.9,1,67.1,1,26.9,1,27.3,1,24.2,1
7/4/2003 15:15,27.9,1,67,1,26.9,1,27.3,1,24.2,1
7/4/2003 15:30,27.9,1,67.1,1,26.9,1,27.3,1,24.2,1
7/4/2003 15:45,27.8,1,67.1,1,26.9,1,27.3,1,24.2,1
7/4/2003 16:00,27.9,1,67.1,1,26.9,1,27.3,1,24.2,1
7/4/2003 16:15,27.9,1,67.1,1,26.9,1,27.3,1,24.2,1
7/4/2003 16:30,27.9,1,67.1,1,26.9,1,27.3,1,24.2,1
7/4/2003 16:45,27.9,1,67.2,1,26.9,1,27.3,1,24.3,1
7/4/2003 17:00,27.8,1,67.4,1,26.9,1,27.3,1,24.3,1
7/4/2003 17:15,27.9,1,67.3,1,26.8,1,27.3,1,24.3,1
7/4/2003 17:30,27.9,1,67.3,1,26.8,1,27.3,1,24.3,1
7/4/2003 17:45,27.9,1,67.3,1,26.8,1,27.3,1,24.3,1
7/4/2003 18:00,27.9,1,67.3,1,26.8,1,27.3,1,24.3,1
7/4/2003 18:15,27.8,1,67.5,1,26.8,1,27.3,1,24.4,1
7/4/2003 18:30,27.9,1,67.4,1,26.8,1,27.2,1,24.4,1
7/4/2003 18:45,27.9,1,67.4,1,26.8,1,27.2,1,24.4,1
7/4/2003 19:00,27.9,1,67.3,1,26.8,1,27.2,1,24.5,1
7/4/2003 19:15,27.9,1,67.4,1,26.8,1,27.2,1,24.5,1
7/4/2003 19:30,27.8,1,67.4,1,26.8,1,27.2,1,24.5,1
7/4/2003 19:45,27.9,1,67.2,1,26.7,1,27.2,1,24.5,1
7/4/2003 20:00,27.9,1,67.2,1,26.7,1,27.2,1,24.5,1
7/4/2003 20:15,27.9,1,67.2,1,26.7,1,27.2,1,24.6,1
7/4/2003 20:30,27.8,1,67.2,1,26.7,1,27.2,1,24.6,1
7/4/2003 20:45,27.8,1,67.2,1,26.7,1,27.2,1,24.6,1
7/4/2003 21:00,27.8,1,67.1,1,26.6,1,27.1,1,24.6,1
7/4/2003 21:15,27.9,1,67,1,26.6,1,27.1,1,24.6,1
7/4/2003 21:30,27.8,1,67,1,26.6,1,27.1,1,24.7,1
7/4/2003 21:45,27.8,1,67.1,1,26.6,1,27.1,1,24.7,1
7/4/2003 22:00,27.8,1,67,1,26.6,1,27.1,1,24.7,1
7/4/2003 22:15,27.8,1,66.9,1,26.6,1,27.1,1,24.7,1
7/4/2003 22:30,27.9,1,66.8,1,26.6,1,27.1,1,24.7,1
7/4/2003 22:45,27.8,1,66.9,1,26.6,1,27.1,1,24.7,1
7/4/2003 23:00,27.8,1,67,1,26.6,1,27.1,1,24.7,1
7/4/2003 23:15,27.8,1,66.9,1,26.6,1,27.1,1,24.8,1
7/4/2003 23:30,27.8,1,66.7,1,26.6,1,27.1,1,24.8,1
7/4/2003 23:45,27.8,1,66.7,1,26.6,1,27.1,1,24.8,1
7/5/2003 0:00,27.8,1,66.8,1,26.5,1,27.1,1,24.8,1
7/5/2003 0:15,27.8,1,66.8,1,26.5,1,27.1,1,24.8,1
7/5/2003 0:30,27.8,1,66.8,1,26.5,1,27.1,1,24.8,1
7/5/2003 0:45,27.8,1,66.7,1,26.5,1,27.1,1,24.8,1
7/5/2003 1:00,27.8,1,66.6,1,26.5,1,27.1,1,24.8,1
7/5/2003 1:15,27.8,1,66.7,1,26.5,1,27,1,24.8,1
7/5/2003 1:30,27.7,1,66.8,1,26.5,1,27,1,24.8,1
7/5/2003 1:45,27.8,1,66.7,1,26.5,1,27,1,24.8,1
7/5/2003 2:00,27.8,1,66.6,1,26.5,1,27,1,24.8,1
7/5/2003 2:15,27.8,1,66.6,1,26.5,1,27,1,24.8,1
7/5/2003 2:30,27.7,1,66.7,1,26.5,1,27,1,24.8,1
7/5/2003 2:45,27.7,1,66.7,1,26.5,1,27,1,24.8,1
7/5/2003 3:00,27.7,1,66.6,1,26.5,1,27,1,24.9,1
7/5/2003 3:15,27.8,1,66.5,1,26.5,1,27,1,24.9,1
7/5/2003 3:30,27.8,1,66.6,1,26.5,1,27,1,24.9,1
7/5/2003 3:45,27.7,1,66.7,1,26.5,1,27,1,24.8,1
7/5/2003 4:00,27.7,1,66.7,1,26.5,1,27,1,24.8,1
7/5/2003 4:15,27.7,1,66.6,1,26.5,1,27,1,24.9,1
7/5/2003 4:30,27.7,1,66.5,1,26.5,1,27,1,24.9,1
7/5/2003 4:45,27.8,1,66.4,1,26.4,1,27,1,24.9,1
7/5/2003 5:00,27.8,1,66.3,1,26.4,1,27,1,24.9,1
7/5/2003 5:15,27.8,1,66.2,1,26.4,1,27,1,24.9,1
7/5/2003 5:30,27.8,1,65.9,1,26.4,1,27,1,24.9,1
7/5/2003 5:45,27.8,1,65.5,1,26.4,1,27,1,24.9,1
7/5/2003 6:00,27.8,1,65.7,1,26.5,1,27,1,24.9,1
7/5/2003 6:15,27.8,1,65.7,1,26.5,1,27,1,24.9,1
7/5/2003 6:30,27.8,1,65.7,1,26.5,1,27,1,24.9,1
7/5/2003 6:45,27.7,1,65.9,1,26.5,1,27,1,24.9,1
7/5/2003 7:00,27.7,1,65.9,1,26.5,1,27,1,24.9,1
7/5/2003 7:15,27.7,1,65.6,1,26.5,1,27,1,24.9,1
7/5/2003 7:30,27.8,1,65.5,1,26.5,1,27,1,24.9,1
7/5/2003 7:45,27.8,1,65.1,1,26.5,1,27,1,24.9,1
7/5/2003 8:00,27.7,1,65.6,1,26.6,1,27,1,24.9,1
7/5/2003 8:15,27.7,1,65.4,1,26.6,1,27,1,24.9,1
7/5/2003 8:30,27.7,1,65.5,1,26.6,1,27,1,25,1
7/5/2003 8:45,27.8,1,65.2,1,26.6,1,27.1,1,25,1
7/5/2003 9:00,27.8,1,65.3,1,26.6,1,27.1,1,25,1
7/5/2003 9:15,27.7,1,65.2,1,26.6,1,27.1,1,25,1
7/5/2003 9:30,27.7,1,65.4,1,26.6,1,27.1,1,25,1
7/5/2003 9:45,27.8,1,65.1,1,26.7,1,27.1,1,25,1
7/5/2003 10:00,27.8,1,64.9,1,26.7,1,27.1,1,25,1
7/5/2003 10:15,27.8,1,65,1,26.7,1,27.2,1,25,1
7/5/2003 10:30,27.7,1,65.1,1,26.8,1,27.2,1,25.1,1
7/5/2003 10:45,27.8,1,65.1,1,26.8,1,27.2,1,25.1,1
7/5/2003 11:00,27.8,1,64.9,1,26.8,1,27.2,1,25.1,1
7/5/2003 11:15,27.8,1,65,1,26.8,1,27.2,1,25.1,1
7/5/2003 11:30,27.8,1,64.8,1,26.8,1,27.2,1,25.1,1
7/5/2003 11:45,27.8,1,65.2,1,26.8,1,27.2,1,25.1,1
7/5/2003 12:00,27.8,1,65.2,1,26.8,1,27.3,1,25.1,1
7/5/2003 12:15,27.8,1,65,1,26.8,1,27.3,1,25.2,1
7/5/2003 12:30,27.8,1,65.1,1,26.9,1,27.3,1,25.1,1
7/5/2003 12:45,27.8,1,65.2,1,26.9,1,27.3,1,25.2,1
7/5/2003 13:00,27.8,1,65.3,1,26.9,1,27.3,1,25.1,1
7/5/2003 13:15,27.8,1,65.2,1,26.9,1,27.3,1,25.2,1
7/5/2003 13:30,27.9,1,65.2,1,26.9,1,27.4,1,25.1,1
7/5/2003 13:45,27.9,1,65.2,1,27,1,27.4,1,25.2,1
7/5/2003 14:00,27.8,1,65.3,1,27,1,27.4,1,25.1,1
7/5/2003 14:15,27.8,1,65.2,1,27,1,27.4,1,25.2,1
7/5/2003 14:30,27.9,1,65.2,1,27,1,27.4,1,25.2,1
7/5/2003 14:45,27.9,1,65.2,1,27,1,27.4,1,25.2,1
7/5/2003 15:00,27.9,1,65.2,1,27,1,27.4,1,25.2,1
7/5/2003 15:15,27.9,1,65.4,1,27,1,27.4,1,25.2,1
7/5/2003 15:30,27.9,1,65.4,1,27,1,27.4,1,25.2,1
7/5/2003 15:45,27.9,1,65.5,1,27,1,27.3,1,25.2,1
7/5/2003 16:00,27.9,1,65.4,1,26.9,1,27.3,1,25.2,1
7/5/2003 16:15,27.7,1,62.2,1,27.1,1,27.3,1,24.5,1
7/5/2003 16:30,27.8,1,62.2,1,27.1,1,27.3,1,24.5,1
7/5/2003 16:45,27.8,1,61.8,1,27,1,27.3,1,24.5,1
7/5/2003 17:00,27.8,1,61.5,1,26.9,1,27.2,1,24.5,1
7/5/2003 17:15,27.8,1,60.7,1,26.8,1,27.1,1,24.5,1
7/5/2003 17:30,27.8,1,61.1,1,26.6,1,27,1,24.5,1
7/5/2003 17:45,27.8,1,60,1,26.5,1,26.9,1,24.1,1
7/5/2003 18:00,27.8,1,59.6,1,26.3,1,26.9,1,24.1,1
7/5/2003 18:15,27.8,1,58.5,1,26.2,1,26.8,1,24.2,1
7/5/2003 18:30,27.8,1,58.1,1,26,1,26.9,1,24.1,1
7/5/2003 18:45,27.8,1,58,1,26,1,26.9,1,24.2,1
7/5/2003 19:00,27.8,1,57.8,1,25.8,1,26.9,1,24.2,1
7/5/2003 19:15,27.9,1,58.6,1,25.8,1,26.9,1,24.2,1
7/5/2003 19:30,27.9,1,57.7,1,25.7,1,26.9,1,24,1
7/5/2003 19:45,28,1,59.1,1,25.8,1,27,1,23,1
7/5/2003 20:00,27.9,1,59.9,1,25.9,1,26.9,1,23,1
7/5/2003 20:15,27.9,1,58.1,1,25.6,1,26.9,1,23,1
7/5/2003 20:30,27.8,1,57.4,1,25.5,1,26.9,1,23.1,1
7/5/2003 20:45,27.8,1,58.6,1,25.3,1,26.9,1,23.1,1
7/5/2003 21:00,27.8,1,57.2,1,25.4,1,27,1,23,1
7/5/2003 21:15,27.8,1,57.9,1,25.3,1,27,1,23.1,1
7/5/2003 21:30,27.7,1,57.1,1,25,1,27,1,23.1,1
7/5/2003 21:45,27.6,1,55.8,1,24.7,1,27,1,23,1
7/5/2003 22:00,27.6,1,55.8,1,24.6,1,27,1,23.1,1
7/5/2003 22:15,27.6,1,55.6,1,24.7,1,26.9,1,23,1
7/5/2003 22:30,27.7,1,55.4,1,24.7,1,26.9,1,23,1
7/5/2003 22:45,27.6,1,54.8,1,24.4,1,26.9,1,22.9,1
7/5/2003 23:00,27.7,1,55.3,1,24.6,1,26.8,1,22.9,1
7/5/2003 23:15,27.8,1,55.6,1,25,1,26.8,1,22.9,1
7/5/2003 23:30,27.8,1,55.8,1,25.1,1,26.8,1,24.6,1
7/5/2003 23:45,27.9,1,56.1,1,25.3,1,26.8,1,24.6,1
7/6/2003 0:00,27.9,1,55.5,1,25.5,1,26.8,1,24.6,1
7/6/2003 0:15,27.8,1,54.9,1,25.3,1,26.8,1,24.4,1
7/6/2003 0:30,27.8,1,55.3,1,25.5,1,26.8,1,23.5,1
7/6/2003 0:45,27.9,1,56.3,1,25.7,1,26.8,1,23.5,1